| time (UTC) | temp F | wind direction | speed MPH | gust MPH | rain 1hr in | rain 24hr in | rain mn in | humidity % | barometer mb |
| 20260903043807 | 77 | 0 | 0.0 | 0.0 | 0.00 | 0.00 | 0.00 | 21 | 1050.0 |
| 20260903042946 | 76 | 0 | 0.0 | 0.0 | 0.00 | 0.00 | 0.00 | 21 | 1050.0 |
| 20260903042126 | 76 | 0 | 0.0 | 0.0 | 0.00 | 0.00 | 0.00 | 21 | 1050.0 |
| 20260903041306 | 76 | 0 | 0.0 | 0.0 | 0.00 | 0.00 | 0.00 | 20 | 1050.0 |
| 20260903040446 | 76 | 0 | 0.0 | 0.0 | 0.00 | 0.00 | 0.00 | 20 | 1050.0 |
| 20260903035626 | 76 | 0 | 0.0 | 0.0 | 0.00 | 0.00 | 0.00 | 20 | 1050.0 |
| 20260903034805 | 76 | 0 | 0.0 | 0.0 | 0.00 | 0.00 | 0.00 | 21 | 1050.0 |
| 20260903033945 | 76 | 0 | 0.0 | 0.0 | 0.00 | 0.00 | 0.00 | 21 | 1050.0 |
| 20260903033125 | 76 | 0 | 0.0 | 0.0 | 0.00 | 0.00 | 0.00 | 20 | 1050.0 |
| 20260903032306 | 76 | 0 | 0.0 | 0.0 | 0.00 | 0.00 | 0.00 | 20 | 1050.0 |
| 20260903031445 | 76 | 0 | 0.0 | 0.0 | 0.00 | 0.00 | 0.00 | 21 | 1050.0 |
| 20260903030624 | 77 | 0 | 0.0 | 0.0 | 0.00 | 0.00 | 0.00 | 21 | 1050.0 |
| 20260903025804 | 76 | 0 | 0.0 | 0.0 | 0.00 | 0.00 | 0.00 | 21 | 1050.0 |
| 20260903024944 | 77 | 0 | 0.0 | 0.0 | 0.00 | 0.00 | 0.00 | 21 | 1050.0 |
| 20260903024124 | 77 | 0 | 0.0 | 0.0 | 0.00 | 0.00 | 0.00 | 21 | 1050.0 |
| 20260903023304 | 77 | 0 | 0.0 | 0.0 | 0.00 | 0.00 | 0.00 | 20 | 1050.0 |
| 20260903022443 | 77 | 0 | 0.0 | 0.0 | 0.00 | 0.00 | 0.00 | 20 | 1050.0 |
| 20260903021623 | 77 | 0 | 0.0 | 0.0 | 0.00 | 0.00 | 0.00 | 20 | 1050.0 |
| 20260903020803 | 77 | 0 | 0.0 | 0.0 | 0.00 | 0.00 | 0.00 | 20 | 1050.0 |
| 20260903015942 | 78 | 0 | 0.0 | 0.0 | 0.00 | 0.00 | 0.00 | 18 | 1050.0 |
| 20260903015122 | 78 | 0 | 0.0 | 0.0 | 0.00 | 0.00 | 0.00 | 18 | 1050.0 |
| 20260903013649 | 78 | 0 | 0.0 | 0.0 | 0.00 | 0.00 | 0.00 | 18 | 1050.0 |
| 20260903012829 | 78 | 0 | 0.0 | 0.0 | 0.00 | 0.00 | 0.00 | 18 | 1050.0 |
| 20260903012008 | 78 | 0 | 0.0 | 0.0 | 0.00 | 0.00 | 0.00 | 18 | 1050.0 |
| 20260903011148 | 78 | 0 | 0.0 | 0.0 | 0.00 | 0.00 | 0.00 | 18 | 1050.0 |
| 20260903010328 | 78 | 0 | 0.0 | 0.0 | 0.00 | 0.00 | 0.00 | 18 | 1050.0 |
| 20260903005508 | 78 | 0 | 0.0 | 0.0 | 0.00 | 0.00 | 0.00 | 18 | 1050.0 |
| 20260903004648 | 78 | 0 | 0.0 | 0.0 | 0.00 | 0.00 | 0.00 | 15 | 1050.0 |
| 20260903003828 | 78 | 0 | 0.0 | 0.0 | 0.00 | 0.00 | 0.00 | 15 | 1050.0 |
| 20260903003008 | 78 | 0 | 0.0 | 0.0 | 0.00 | 0.00 | 0.00 | 15 | 1050.0 |
| 20260903002147 | 78 | 0 | 0.0 | 0.0 | 0.00 | 0.00 | 0.00 | 15 | 1050.0 |
| 20260903001327 | 77 | 0 | 0.0 | 0.0 | 0.00 | 0.00 | 0.00 | 18 | 1050.0 |
| 20260903000507 | 77 | 0 | 0.0 | 0.0 | 0.00 | 0.00 | 0.00 | 18 | 1050.0 |
| 20260902235646 | 76 | 0 | 0.0 | 0.0 | 0.00 | 0.00 | 0.00 | 21 | 1050.0 |
| 20260902234826 | 76 | 0 | 0.0 | 0.0 | 0.00 | 0.00 | 0.00 | 22 | 1050.0 |
| 20260902234006 | 76 | 0 | 0.0 | 0.0 | 0.00 | 0.00 | 0.00 | 22 | 1050.0 |
| 20260902233146 | 76 | 0 | 0.0 | 0.0 | 0.00 | 0.00 | 0.00 | 22 | 1050.0 |
| 20260902232326 | 76 | 0 | 0.0 | 0.0 | 0.00 | 0.00 | 0.00 | 23 | 1050.0 |
| 20260902231505 | 76 | 0 | 0.0 | 0.0 | 0.00 | 0.00 | 0.00 | 22 | 1050.0 |
| 20260902230645 | 76 | 0 | 0.0 | 0.0 | 0.00 | 0.00 | 0.00 | 23 | 1050.0 |
| 20260902225825 | 76 | 0 | 0.0 | 0.0 | 0.00 | 0.00 | 0.00 | 22 | 1050.0 |
| 20260902225005 | 75 | 0 | 0.0 | 0.0 | 0.00 | 0.00 | 0.00 | 23 | 1050.0 |
| 20260902224144 | 75 | 0 | 0.0 | 0.0 | 0.00 | 0.00 | 0.00 | 23 | 1050.0 |
| 20260902223324 | 75 | 0 | 0.0 | 0.0 | 0.00 | 0.00 | 0.00 | 24 | 1050.0 |
| 20260902222504 | 75 | 0 | 0.0 | 0.0 | 0.00 | 0.00 | 0.00 | 26 | 1050.0 |
| 20260902221644 | 75 | 0 | 0.0 | 0.0 | 0.00 | 0.00 | 0.00 | 30 | 1050.0 |
| 20260902220824 | 76 | 0 | 0.0 | 0.0 | 0.00 | 0.00 | 0.00 | 31 | 1050.0 |
| 20260902220003 | 76 | 0 | 0.0 | 0.0 | 0.00 | 0.00 | 0.00 | 33 | 1050.0 |
| 20260902215143 | 75 | 0 | 0.0 | 0.0 | 0.00 | 0.00 | 0.00 | 35 | 1050.0 |
| 20260902214323 | 76 | 0 | 0.0 | 0.0 | 0.00 | 0.00 | 0.00 | 29 | 1050.0 |
| 20260902213503 | 77 | 0 | 0.0 | 0.0 | 0.00 | 0.00 | 0.00 | 21 | 1050.0 |
| 20260902212643 | 77 | 0 | 0.0 | 0.0 | 0.00 | 0.00 | 0.00 | 21 | 1050.0 |
| 20260902211823 | 77 | 0 | 0.0 | 0.0 | 0.00 | 0.00 | 0.00 | 21 | 1050.0 |
| 20260902211002 | 76 | 0 | 0.0 | 0.0 | 0.00 | 0.00 | 0.00 | 22 | 1050.0 |
| 20260902210142 | 75 | 0 | 0.0 | 0.0 | 0.00 | 0.00 | 0.00 | 31 | 1050.0 |
| 20260902205322 | 75 | 0 | 0.0 | 0.0 | 0.00 | 0.00 | 0.00 | 31 | 1050.0 |
| 20260902204502 | 76 | 0 | 0.0 | 0.0 | 0.00 | 0.00 | 0.00 | 27 | 1050.0 |
| 20260902203641 | 75 | 0 | 0.0 | 0.0 | 0.00 | 0.00 | 0.00 | 23 | 1050.0 |
| 20260902202821 | 74 | 0 | 0.0 | 0.0 | 0.00 | 0.00 | 0.00 | 32 | 1050.0 |
| 20260902202001 | 75 | 0 | 0.0 | 0.0 | 0.00 | 0.00 | 0.00 | 35 | 1050.0 |
| 20260902201141 | 79 | 0 | 0.0 | 0.0 | 0.00 | 0.00 | 0.00 | 28 | 1050.0 |
| 20260902200321 | 81 | 0 | 0.0 | 0.0 | 0.00 | 0.00 | 0.00 | 26 | 1050.0 |
| 20260902195501 | 82 | 0 | 0.0 | 0.0 | 0.00 | 0.00 | 0.00 | 28 | 1050.0 |
| 20260902194641 | 82 | 0 | 0.0 | 0.0 | 0.00 | 0.00 | 0.00 | 24 | 1050.0 |
| 20260902193820 | 82 | 0 | 0.0 | 0.0 | 0.00 | 0.00 | 0.00 | 23 | 1050.0 |
| 20260902193000 | 81 | 0 | 0.0 | 0.0 | 0.00 | 0.00 | 0.00 | 22 | 1050.0 |
| 20260902192140 | 82 | 0 | 0.0 | 0.0 | 0.00 | 0.00 | 0.00 | 19 | 1050.0 |
| 20260902191320 | 85 | 0 | 0.0 | 0.0 | 0.00 | 0.00 | 0.00 | 19 | 1050.0 |
| 20260902190500 | 86 | 0 | 0.0 | 0.0 | 0.00 | 0.00 | 0.00 | 16 | 1050.0 |
| 20260902185639 | 87 | 0 | 0.0 | 0.0 | 0.00 | 0.00 | 0.00 | 14 | 1050.0 |
| 20260902184819 | 87 | 0 | 0.0 | 0.0 | 0.00 | 0.00 | 0.00 | 16 | 1050.0 |
| 20260902183959 | 87 | 0 | 0.0 | 0.0 | 0.00 | 0.00 | 0.00 | 13 | 1050.0 |
| 20260902183139 | 87 | 0 | 0.0 | 0.0 | 0.00 | 0.00 | 0.00 | 13 | 1050.0 |
| 20260902182318 | 87 | 0 | 0.0 | 0.0 | 0.00 | 0.00 | 0.00 | 16 | 1050.0 |
| 20260902181458 | 87 | 0 | 0.0 | 0.0 | 0.00 | 0.00 | 0.00 | 16 | 1050.0 |
| 20260902180638 | 87 | 0 | 0.0 | 0.0 | 0.00 | 0.00 | 0.00 | 16 | 1050.0 |
| 20260902175818 | 87 | 0 | 0.0 | 0.0 | 0.00 | 0.00 | 0.00 | 16 | 1050.0 |
| 20260902174958 | 87 | 0 | 0.0 | 0.0 | 0.00 | 0.00 | 0.00 | 16 | 1050.0 |
| 20260902174137 | 87 | 0 | 0.0 | 0.0 | 0.00 | 0.00 | 0.00 | 16 | 1050.0 |
| 20260902173317 | 87 | 0 | 0.0 | 0.0 | 0.00 | 0.00 | 0.00 | 16 | 1050.0 |
| 20260902172457 | 88 | 0 | 0.0 | 0.0 | 0.00 | 0.00 | 0.00 | 16 | 1050.0 |
| 20260902171637 | 88 | 0 | 0.0 | 0.0 | 0.00 | 0.00 | 0.00 | 15 | 1050.0 |
| 20260902170816 | 88 | 0 | 0.0 | 0.0 | 0.00 | 0.00 | 0.00 | 15 | 1050.0 |
| 20260902165956 | 88 | 0 | 0.0 | 0.0 | 0.00 | 0.00 | 0.00 | 15 | 1050.0 |
| 20260902165136 | 88 | 0 | 0.0 | 0.0 | 0.00 | 0.00 | 0.00 | 15 | 1050.0 |
| 20260902164316 | 88 | 0 | 0.0 | 0.0 | 0.00 | 0.00 | 0.00 | 15 | 1050.0 |
| 20260902163456 | 88 | 0 | 0.0 | 0.0 | 0.00 | 0.00 | 0.00 | 15 | 1050.0 |
| 20260902162635 | 88 | 0 | 0.0 | 0.0 | 0.00 | 0.00 | 0.00 | 15 | 1050.0 |
| 20260902161815 | 89 | 0 | 0.0 | 0.0 | 0.00 | 0.00 | 0.00 | 15 | 1050.0 |
| 20260902160955 | 88 | 0 | 0.0 | 0.0 | 0.00 | 0.00 | 0.00 | 15 | 1050.0 |
| 20260902160135 | 89 | 0 | 0.0 | 0.0 | 0.00 | 0.00 | 0.00 | 15 | 1050.0 |
| 20260902155315 | 89 | 0 | 0.0 | 0.0 | 0.00 | 0.00 | 0.00 | 15 | 1050.0 |
| 20260902154455 | 89 | 0 | 0.0 | 0.0 | 0.00 | 0.00 | 0.00 | 15 | 1050.0 |
| 20260902153635 | 89 | 0 | 0.0 | 0.0 | 0.00 | 0.00 | 0.00 | 15 | 1050.0 |
| 20260902152815 | 90 | 0 | 0.0 | 0.0 | 0.00 | 0.00 | 0.00 | 15 | 1050.0 |
| 20260902151955 | 90 | 0 | 0.0 | 0.0 | 0.00 | 0.00 | 0.00 | 15 | 1050.0 |
| 20260902151135 | 90 | 0 | 0.0 | 0.0 | 0.00 | 0.00 | 0.00 | 15 | 1050.0 |
| 20260902150315 | 91 | 0 | 0.0 | 0.0 | 0.00 | 0.00 | 0.00 | 15 | 1050.0 |
| 20260902145455 | 90 | 0 | 0.0 | 0.0 | 0.00 | 0.00 | 0.00 | 15 | 1050.0 |
| 20260902144635 | 90 | 0 | 0.0 | 0.0 | 0.00 | 0.00 | 0.00 | 15 | 1050.0 |
| 20260902143815 | 90 | 0 | 0.0 | 0.0 | 0.00 | 0.00 | 0.00 | 15 | 1050.0 |
| 20260902142955 | 90 | 0 | 0.0 | 0.0 | 0.00 | 0.00 | 0.00 | 15 | 1050.0 |
| 20260902142135 | 89 | 0 | 0.0 | 0.0 | 0.00 | 0.00 | 0.00 | 15 | 1050.0 |
| 20260902141315 | 89 | 0 | 0.0 | 0.0 | 0.00 | 0.00 | 0.00 | 15 | 1050.0 |
| 20260902140455 | 89 | 0 | 0.0 | 0.0 | 0.00 | 0.00 | 0.00 | 15 | 1050.0 |
| 20260902135635 | 90 | 0 | 0.0 | 0.0 | 0.00 | 0.00 | 0.00 | 15 | 1050.0 |
| 20260902134815 | 89 | 0 | 0.0 | 0.0 | 0.00 | 0.00 | 0.00 | 15 | 1050.0 |
| 20260902133955 | 89 | 0 | 0.0 | 0.0 | 0.00 | 0.00 | 0.00 | 15 | 1050.0 |
| 20260902133135 | 90 | 0 | 0.0 | 0.0 | 0.00 | 0.00 | 0.00 | 15 | 1050.0 |
| 20260902132315 | 91 | 0 | 0.0 | 0.0 | 0.00 | 0.00 | 0.00 | 15 | 1050.0 |
| 20260902131455 | 91 | 0 | 0.0 | 0.0 | 0.00 | 0.00 | 0.00 | 15 | 1050.0 |
| 20260902130634 | 91 | 0 | 0.0 | 0.0 | 0.00 | 0.00 | 0.00 | 15 | 1050.0 |
| 20260902125814 | 90 | 0 | 0.0 | 0.0 | 0.00 | 0.00 | 0.00 | 15 | 1050.0 |
| 20260902124954 | 90 | 0 | 0.0 | 0.0 | 0.00 | 0.00 | 0.00 | 15 | 1050.0 |
| 20260902124134 | 90 | 0 | 0.0 | 0.0 | 0.00 | 0.00 | 0.00 | 15 | 1050.0 |
| 20260902123314 | 90 | 0 | 0.0 | 0.0 | 0.00 | 0.00 | 0.00 | 15 | 1050.0 |
| 20260902122454 | 90 | 0 | 0.0 | 0.0 | 0.00 | 0.00 | 0.00 | 15 | 1050.0 |
| 20260902121634 | 90 | 0 | 0.0 | 0.0 | 0.00 | 0.00 | 0.00 | 15 | 1050.0 |
| 20260902120814 | 90 | 0 | 0.0 | 0.0 | 0.00 | 0.00 | 0.00 | 15 | 1050.0 |
| 20260902115954 | 90 | 0 | 0.0 | 0.0 | 0.00 | 0.00 | 0.00 | 15 | 1050.0 |
| 20260902115135 | 90 | 0 | 0.0 | 0.0 | 0.00 | 0.00 | 0.00 | 15 | 1050.0 |
| 20260902114314 | 90 | 0 | 0.0 | 0.0 | 0.00 | 0.00 | 0.00 | 15 | 1050.0 |
| 20260902113454 | 90 | 0 | 0.0 | 0.0 | 0.00 | 0.00 | 0.00 | 15 | 1050.0 |
| 20260902112634 | 90 | 0 | 0.0 | 0.0 | 0.00 | 0.00 | 0.00 | 15 | 1050.0 |
| 20260902111814 | 90 | 0 | 0.0 | 0.0 | 0.00 | 0.00 | 0.00 | 15 | 1050.0 |
| 20260902110954 | 90 | 0 | 0.0 | 0.0 | 0.00 | 0.00 | 0.00 | 15 | 1050.0 |
| 20260902110134 | 90 | 0 | 0.0 | 0.0 | 0.00 | 0.00 | 0.00 | 15 | 1050.0 |
| 20260902105314 | 90 | 0 | 0.0 | 0.0 | 0.00 | 0.00 | 0.00 | 15 | 1050.0 |
| 20260902104454 | 89 | 0 | 0.0 | 0.0 | 0.00 | 0.00 | 0.00 | 15 | 1050.0 |
| 20260902103634 | 89 | 0 | 0.0 | 0.0 | 0.00 | 0.00 | 0.00 | 15 | 1050.0 |
| 20260902102814 | 89 | 0 | 0.0 | 0.0 | 0.00 | 0.00 | 0.00 | 15 | 1050.0 |
| 20260902101954 | 89 | 0 | 0.0 | 0.0 | 0.00 | 0.00 | 0.00 | 15 | 1050.0 |
| 20260902101133 | 89 | 0 | 0.0 | 0.0 | 0.00 | 0.00 | 0.00 | 15 | 1050.0 |
| 20260902100313 | 89 | 0 | 0.0 | 0.0 | 0.00 | 0.00 | 0.00 | 15 | 1050.0 |
| 20260902095453 | 88 | 0 | 0.0 | 0.0 | 0.00 | 0.00 | 0.00 | 15 | 1050.0 |
| 20260902094633 | 88 | 0 | 0.0 | 0.0 | 0.00 | 0.00 | 0.00 | 15 | 1050.0 |
| 20260902093813 | 88 | 0 | 0.0 | 0.0 | 0.00 | 0.00 | 0.00 | 15 | 1050.0 |
| 20260902092953 | 87 | 0 | 0.0 | 0.0 | 0.00 | 0.00 | 0.00 | 16 | 1050.0 |
| 20260902092133 | 87 | 0 | 0.0 | 0.0 | 0.00 | 0.00 | 0.00 | 16 | 1050.0 |
| 20260902091313 | 88 | 0 | 0.0 | 0.0 | 0.00 | 0.00 | 0.00 | 16 | 1050.0 |
| 20260902090453 | 87 | 0 | 0.0 | 0.0 | 0.00 | 0.00 | 0.00 | 16 | 1050.0 |
| 20260902085633 | 87 | 0 | 0.0 | 0.0 | 0.00 | 0.00 | 0.00 | 16 | 1050.0 |
| 20260902084813 | 87 | 0 | 0.0 | 0.0 | 0.00 | 0.00 | 0.00 | 16 | 1050.0 |
| 20260902083953 | 87 | 0 | 0.0 | 0.0 | 0.00 | 0.00 | 0.00 | 16 | 1050.0 |
| 20260902083132 | 86 | 0 | 0.0 | 0.0 | 0.00 | 0.00 | 0.00 | 16 | 1050.0 |
| 20260902082312 | 87 | 0 | 0.0 | 0.0 | 0.00 | 0.00 | 0.00 | 16 | 1050.0 |
| 20260902081452 | 87 | 0 | 0.0 | 0.0 | 0.00 | 0.00 | 0.00 | 16 | 1050.0 |
| 20260902080632 | 87 | 0 | 0.0 | 0.0 | 0.00 | 0.00 | 0.00 | 16 | 1050.0 |
| 20260902075812 | 86 | 0 | 0.0 | 0.0 | 0.00 | 0.00 | 0.00 | 16 | 1050.0 |
| 20260902074951 | 86 | 0 | 0.0 | 0.0 | 0.00 | 0.00 | 0.00 | 16 | 1050.0 |
| 20260902074131 | 86 | 0 | 0.0 | 0.0 | 0.00 | 0.00 | 0.00 | 16 | 1050.0 |
| 20260902073311 | 86 | 0 | 0.0 | 0.0 | 0.00 | 0.00 | 0.00 | 16 | 1050.0 |
| 20260902072451 | 86 | 0 | 0.0 | 0.0 | 0.00 | 0.00 | 0.00 | 16 | 1050.0 |
| 20260902071630 | 86 | 0 | 0.0 | 0.0 | 0.00 | 0.00 | 0.00 | 16 | 1050.0 |
| 20260902070810 | 85 | 0 | 0.0 | 0.0 | 0.00 | 0.00 | 0.00 | 16 | 1050.0 |
| 20260902065950 | 85 | 0 | 0.0 | 0.0 | 0.00 | 0.00 | 0.00 | 16 | 1050.0 |
| 20260902065130 | 85 | 0 | 0.0 | 0.0 | 0.00 | 0.00 | 0.00 | 18 | 1050.0 |
| 20260902064310 | 85 | 0 | 0.0 | 0.0 | 0.00 | 0.00 | 0.00 | 18 | 1050.0 |
| 20260902063449 | 84 | 0 | 0.0 | 0.0 | 0.00 | 0.00 | 0.00 | 19 | 1050.0 |
| 20260902062629 | 84 | 0 | 0.0 | 0.0 | 0.00 | 0.00 | 0.00 | 19 | 1050.0 |
| 20260902061809 | 84 | 0 | 0.0 | 0.0 | 0.00 | 0.00 | 0.00 | 19 | 1050.0 |
| 20260902060949 | 84 | 0 | 0.0 | 0.0 | 0.00 | 0.00 | 0.00 | 19 | 1050.0 |
| 20260902060129 | 83 | 0 | 0.0 | 0.0 | 0.00 | 0.00 | 0.00 | 19 | 1050.0 |
| 20260902055308 | 83 | 0 | 0.0 | 0.0 | 0.00 | 0.00 | 0.00 | 19 | 1050.0 |
| 20260902054448 | 82 | 0 | 0.0 | 0.0 | 0.00 | 0.00 | 0.00 | 19 | 1050.0 |
| 20260902053628 | 82 | 0 | 0.0 | 0.0 | 0.00 | 0.00 | 0.00 | 21 | 1050.0 |
| 20260902052808 | 81 | 0 | 0.0 | 0.0 | 0.00 | 0.00 | 0.00 | 23 | 1050.0 |
| 20260902051948 | 80 | 0 | 0.0 | 0.0 | 0.00 | 0.00 | 0.00 | 24 | 1050.0 |
| 20260902051127 | 80 | 0 | 0.0 | 0.0 | 0.00 | 0.00 | 0.00 | 23 | 1050.0 |
| 20260902050307 | 81 | 0 | 0.0 | 0.0 | 0.00 | 0.00 | 0.00 | 25 | 1050.0 |
| 20260902045447 | 80 | 0 | 0.0 | 0.0 | 0.00 | 0.00 | 0.00 | 25 | 1050.0 |
| 20260902044627 | 80 | 0 | 0.0 | 0.0 | 0.00 | 0.00 | 0.00 | 24 | 1050.0 |